Hourly Weather Roundup
Issued by NWS Central Illinois

Home | Current Version | Previous Version | Text Only | Print | Product List | Glossary On
Versions: 1 2 3 4 5 6 7 8 9 10 11 12 13 14 15 16 17 18 19 20 21 22 23 24 25 26 27 28 29 30 31 32 33 34 35 36 37 38 39 40 41 42 43 44 45 46 47 48 49 50
000
NZUS43 KILX 302210
HWRILX

AREA WEATHER ROUNDUP
NATIONAL WEATHER SERVICE, LINCOLN IL
400 PM CST FRI JAN 30 2015


CITY           SKY/WX    TMP DP  RH WIND       PRES   REMARKS
BLOOMINGTON    SUNNY     33  20  59 SW8       30.46S WCI  26
CHAMPAIGN      SUNNY     33  17  51 NW6       30.46S WCI  28
DECATUR        SUNNY     36  18  48 NW5       30.47F WCI  32
FLORA          SUNNY     37  21  52 NE3       30.49S
GALESBURG      SUNNY     31  20  62 SW7       30.46S WCI  24
JACKSONVILLE   SUNNY     37  19  47 CALM      30.47F
LACON          SUNNY     31  18  58 NW5       30.47S WCI  26
LAWRENCEVILLE  SUNNY     38  19  46 N7        30.47F WCI  33
LITCHFIELD     SUNNY     34  18  51 CALM      30.47F
$$


CITY           SKY/WX    TMP DP  RH WIND       PRES   REMARKS
LINCOLN        SUNNY     36  20  53 SW3       30.48S
MACOMB         SUNNY     33  21  62 CALM      30.48F
MATTOON        SUNNY     34  18  52 N6        30.46S WCI  29
MT CARMEL AP   SUNNY     39  19  45 W6        30.47S WCI  35
OLNEY-NOBLE AP SUNNY     36  23  60 CALM      30.48S
PARIS          SUNNY     34  18  53 NW5       30.47S WCI  30
PEORIA         SUNNY     36  17  46 W5        30.47S WCI  32
PONTIAC        MOSUNNY   31  20  63 W7        30.48S WCI  25
RANTOUL        SUNNY     33  19  56 W3        30.46S
ROBINSON       SUNNY     36  20  53 N5        30.48S WCI  32
SPRINGFIELD    SUNNY     35  19  52 SW5       30.48S WCI  31
TAYLORVILLE    SUNNY     32  21  64 CALM      30.48S
$$

...REGIONAL REPORTS...


CITY           SKY/WX    TMP DP  RH WIND       PRES   REMARKS
CHICAGO O`HARE PTCLDY    28   9  44 W3        30.43F
KANKAKEE       SUNNY     31  18  58 SW5       30.47S WCI  26
MOLINE         SUNNY     30  14  51 S6        30.46S WCI  24
MOUNT VERNON   SUNNY     39  19  45 NW3       30.48S
PITTSFIELD     SUNNY     37  21  52 SW5       30.46F WCI  33
QUINCY         SUNNY     34  16  47 SW6       30.45F WCI  29
ROCKFORD       MOSUNNY   28  11  48 W7        30.46F WCI  21
$$


CITY           SKY/WX    TMP DP  RH WIND       PRES   REMARKS
BURLINGTON     SUNNY     32  16  51 SW7       30.45F WCI  26
CEDAR RAPIDS   SUNNY     30  12  47 SW7       30.42F WCI  23
DES MOINES     PTSUNNY   36  12  37 SW7       30.41F WCI  30
KIRKSVILLE     MOSUNNY   35  18  49 SW5       30.44F WCI  31
OTTUMWA        SUNNY     34  13  41 CALM      30.43F
ST LOUIS       MOSUNNY   39  16  39 CALM      30.47F
$$


CITY           SKY/WX    TMP DP  RH WIND       PRES   REMARKS
TERRE HAUTE    SUNNY     35  15  44 N5        30.46S WCI  31
EVANSVILLE     SUNNY     40  21  46 N6        30.48R
INDIANAPOLIS   PTCLDY    29  15  56 NW8       30.45S WCI  21
LAFAYETTE      PTCLDY    29  16  58 N5        30.46F WCI  24
MADISON        PTCLDY    25   7  46 S6        30.40F WCI  18
MILWAUKEE      PTCLDY    27   6  41 SW10      30.43F WCI  17
$$





USA.gov is the U.S. government's official web portal to all federal, state and local government web resources and services.